Regional Weather Roundup
Issued by NWS

Home | Current Version | Previous Version | Graphics & Text | Print | Product List | Glossary On
Versions: 1 2 3 4 5 6 7 8 9 10 11 12 13 14 15 16 17 18 19 20 21 22 23 24 25 26 27 28 29 30 31 32 33 34 35 36 37 38 39 40 41 42 43 44 45 46 47 48 49 50
000
ASUS43 KTOP 020359
RWRKS

WEATHER ROUNDUP FOR KANSAS
NATIONAL WEATHER SERVICE GOODLAND KS
1100 PM CDT SAT AUG 01 2015

NOTE:  "FAIR" INDICATES FEW OR NO CLOUDS BELOW 12,000 FEET WITH NO
SIGNIFICANT WEATHER AND/OR OBSTRUCTIONS TO VISIBILITY.

KSZ001>006-013>018-027>032-041>047-020500-
NORTHWEST KANSAS

CITY           SKY/WX    TMP DP  RH WIND       PRES   REMARKS
GOODLAND       CLOUDY    73  58  59 S8        30.05S
HAYS           MOCLDY    77  63  61 S9        29.98F
HILL CITY      PTCLDY    77  61  57 S7        29.98R
RUSSELL        PTCLDY    74  66  76 S9        29.96S
$$

KSZ061>065-074>080-084>089-020500-
SOUTHWEST KANSAS

CITY           SKY/WX    TMP DP  RH WIND       PRES   REMARKS
DODGE CITY     PTCLDY    73  67  81 S6        30.03R
ELKHART          N/A     74  66  76 SE10        N/A
GARDEN CITY    PTCLDY    74  67  78 SE8       30.03R
GREAT BEND     MOCLDY    75  66  73 S7        29.98S
LIBERAL        MOCLDY    77  64  65 SE7       30.03S
$$

KSZ066>073-081>083-090>101-020500-
SOUTHEAST KANSAS

CITY           SKY/WX    TMP DP  RH WIND       PRES   REMARKS
CHANUTE        CLEAR     74  68  81 S6        29.99R
COFFEYVILLE    CLEAR     77  69  76 S3        29.98R
HUTCHINSON     CLEAR     78  70  76 S7        29.98R
MEDICINE LODGE   N/A     77  70  79 S6        29.99R
NEWTON         CLEAR     79  66  65 S8        30.01S
PARSONS        CLEAR     75  69  81 CALM      29.99R
WICHITA INTL   MOCLDY    80  71  74 S9        29.99R
WICHITA JABRA  CLEAR     80  69  69 S9        29.99R
WINFIELD       CLEAR     77  69  76 SE5       30.00R
$$

KSZ007>012-019>026-033>040-048>060-102>105-020500-
NORTHEAST KANSAS

CITY           SKY/WX    TMP DP  RH WIND       PRES   REMARKS
CONCORDIA      PTCLDY    78  63  59 S12       29.95R
EMPORIA        CLEAR     77  70  79 S8        29.98R
LAWRENCE       CLEAR     73  66  78 SE7       29.98R
MANHATTAN      CLEAR     77  68  73 SW6       29.94R
OLATHE IND     CLEAR     72  65  78 SE8       29.99R
OLATHE EXE     CLEAR     70  64  81 S6        29.98R
SALINA         CLEAR     78  69  73 S8        29.96R
TOPEKA BILLARD CLEAR     79  69  71 SE13      29.96R
TOPEKA FORBES  CLEAR     80  68  66 SE10      29.97R
$$



USA.gov is the U.S. government's official web portal to all federal, state and local government web resources and services.